Theta_e
307 308 309 309 307 307 307 306 305 307 307 307 309 309 308 308 307 308 309 309 309 308 308 307 307 308 308 308 307 306 305 303 304 306 306 305 306 307 308 309 307 306 302 298
307 309 309 307 306 307 307 308 309 308 307 305 307 309 309 309 309 309 309 309 308 306 307 307 306 307 307 307 307 305 304 302 302 303 304 303 303 302 304 305 305 304 301 298
309 310 307 308 308 308 307 308 309 308 306 305 305 308 307 308 306 306 307 306 305 305 305 304 304 304 304 305 306 306 304 302 301 301 301 301 301 300 299 300 301 301 301 298
307 307 308 308 309 307 309 307 307 307 308 310 307 311 307 309 308 307 306 305 304 304 304 302 300 302 302 302 302 303 302 302 299 299 299 299 299 298 298 298 298 300 299 298
309 307 308 309 309 306 309 307 308 307 307 307 307 307 309 307 308 307 307 307 306 303 302 303 301 301 300 299 300 300 300 299 298 298 298 298 298 298 298 298 297 297 297 297
306 304 306 307 306 306 305 307 304 304 306 310 309 308 311 307 309 308 307 307 304 303 302 304 301 300 298 298 297 297 297 297 297 297 297 297 297 297 296 296 296 296 296 295
307 305 306 306 308 305 308 308 310 310 309 313 306 307 311 309 309 308 308 305 302 302 302 301 300 298 296 295 295 296 295 295 295 296 296 296 296 296 297 296 295 294 293 294
313 320 307 304 308 310 306 308 313 315 314 316 302 313 317 306 308 306 303 301 303 302 299 298 298 297 297 295 294 295 295 295 295 295 295 295 295 295 296 296 296 296 295 295
310 311 306 303 304 306 306 308 308 311 309 313 312 310 312 311 306 304 303 301 299 298 298 297 297 296 297 296 295 294 295 295 295 295 295 295 295 295 295 295 295 295 295 294
310 319 310 307 304 304 305 306 310 308 313 315 313 313 314 311 306 303 302 300 297 295 295 295 296 295 295 296 295 295 294 293 293 294 294 294 294 294 294 294 295 295 295 295
307 311 313 311 307 307 306 306 306 307 311 315 318 316 309 305 303 301 297 295 293 293 293 294 294 295 295 294 294 293 293 293 292 292 293 293 293 294 294 293 294 294 294 294
306 314 316 313 310 308 309 311 311 317 318 313 317 319 310 300 298 295 292 292 292 292 293 293 293 294 295 294 293 292 292 292 291 292 292 292 292 292 292 293 293 293 293 293
315 316 318 316 312 310 314 314 313 314 313 317 318 317 307 300 298 296 293 291 291 291 292 293 293 293 295 292 292 292 291 291 290 290 290 292 292 291 290 290 291 291 291 292
311 313 316 317 312 313 314 313 311 313 316 314 315 314 310 298 295 294 294 292 291 291 291 293 293 292 293 290 290 291 290 290 289 288 289 289 289 290 292 291 291 291 291 289
310 312 312 311 309 308 306 306 305 305 306 308 308 306 306 293 292 292 291 293 291 289 290 291 293 290 289 288 288 288 288 288 288 288 288 288 288 287 288 291 290 290 289 289
304 309 304 303 304 302 303 301 301 301 302 303 304 305 292 291 291 290 289 292 291 288 289 290 293 289 288 287 287 286 286 287 285 286 288 287 287 286 285 287 289 290 289 289
303 304 302 304 301 299 300 299 299 299 299 299 300 293 288 289 290 288 288 292 289 288 288 288 291 287 286 285 285 285 285 284 283 284 285 286 285 284 284 285 287 289 288 288
301 300 299 301 291 299 297 295 297 297 294 291 290 288 289 290 291 289 289 291 287 288 288 288 289 286 284 284 284 283 284 282 282 283 283 283 282 281 283 284 284 286 286 285
297 297 294 298 295 295 295 294 294 295 293 290 289 289 290 291 289 288 287 287 286 287 287 287 288 285 283 283 282 282 283 281 280 281 281 280 279 279 283 283 283 283 284 284
293 295 297 287 291 286 292 290 291 290 289 286 284 284 285 288 287 287 285 285 286 286 286 286 285 283 282 281 281 281 282 279 279 280 279 278 277 278 281 280 281 281 282 283
278 280 294 294 295 287 286 287 288 285 286 284 284 286 286 288 288 287 286 285 285 285 285 285 283 281 281 280 279 279 279 278 278 278 277 276 275 276 277 277 279 280 280 281
288 281 275 273 280 287 286 287 287 286 286 285 286 287 286 287 288 288 287 286 285 283 283 282 281 280 280 279 278 278 278 278 277 276 275 274 273 273 274 274 276 279 280 280
287 286 283 283 283 287 287 288 288 288 287 287 286 287 286 287 288 287 285 283 282 282 281 280 279 279 278 277 277 276 276 275 274 273 272 272 271 271 271 272 274 276 279 278
286 285 286 288 288 287 288 288 287 287 287 287 286 285 285 286 285 283 281 281 281 280 279 278 277 276 276 275 275 274 273 272 271 270 270 269 269 269 269 270 272 274 278 279
288 286 285 287 288 288 287 287 287 287 287 285 284 283 282 281 280 279 279 278 278 276 276 275 274 273 273 272 271 270 269 268 268 267 267 267 267 267 268 268 270 273 276 278
289 288 288 288 288 288 288 288 285 286 285 280 279 279 279 278 277 276 275 274 274 273 272 270 269 269 268 267 266 266 265 265 265 264 264 264 265 265 265 266 268 269 272 276
Wind_Speed
2 4 8 14 15 3 3 5 6 13 12 4 24 19 14 16 14 23 24 22 15 15 19 17 18 20 21 21 25 30 33 36 39 41 39 37 46 47 52 52 52 48 46 45
4 7 17 3 5 8 7 8 15 8 11 3 13 21 21 20 22 19 21 19 9 9 16 15 14 15 19 21 21 26 32 36 42 43 41 28 33 34 44 50 52 49 49 48
8 6 3 6 4 7 4 6 10 10 7 6 8 8 4 7 6 5 12 8 9 10 12 14 15 22 20 19 24 24 30 35 38 38 35 29 21 23 33 41 48 51 51 49
6 3 6 4 6 7 7 10 10 6 5 4 6 13 5 7 9 8 5 5 7 8 8 7 9 18 27 24 19 20 25 29 32 36 33 38 32 23 29 34 41 50 51 51
7 6 4 4 8 8 10 3 3 2 3 4 1 3 5 3 7 7 6 3 3 5 5 14 16 24 31 28 21 14 14 23 26 35 36 33 27 27 23 33 37 44 50 50
6 3 5 7 4 6 4 3 5 4 2 4 8 7 2 4 5 1 2 9 3 13 13 17 17 22 24 34 26 18 6 11 19 25 28 31 28 25 24 30 34 41 45 48
1 5 2 2 1 1 3 4 4 3 1 8 1 2 7 5 10 5 8 10 9 9 12 17 20 21 29 31 30 28 18 10 10 16 24 28 29 30 30 29 27 31 37 45
3 16 7 5 7 7 7 9 6 7 6 9 2 7 13 8 5 5 7 7 14 19 18 18 19 27 30 34 35 32 25 17 12 11 17 22 27 29 31 33 33 35 40 47
5 8 1 5 5 6 3 6 4 1 2 1 7 12 14 8 7 13 17 20 18 18 18 18 21 28 30 32 34 36 34 30 25 20 16 20 24 28 32 32 30 32 34 37
2 8 4 3 1 5 7 1 1 2 3 13 7 14 14 13 12 13 15 14 12 13 15 15 16 23 27 28 30 33 35 33 34 33 24 22 23 27 31 32 33 35 35 35
3 7 11 2 7 8 2 4 4 3 5 11 10 7 8 8 9 9 8 7 9 10 11 11 12 17 20 25 29 31 31 33 35 35 35 28 24 28 30 34 33 34 36 35
5 4 6 11 7 1 2 7 7 6 7 5 8 9 5 12 11 9 7 9 10 11 11 10 14 15 18 21 24 28 28 29 34 36 36 35 34 24 26 32 34 33 36 37
1 3 6 5 3 3 2 1 5 4 4 13 11 4 5 9 10 11 9 9 8 9 11 11 14 17 19 22 22 23 27 28 29 31 33 36 38 33 27 27 30 31 34 37
1 4 13 15 8 3 8 15 6 6 7 11 11 12 10 7 11 10 8 6 7 9 11 10 8 15 21 21 21 22 24 26 31 31 26 23 28 33 36 33 29 31 33 35
3 8 8 12 15 6 8 10 14 15 16 10 16 19 21 2 3 5 7 5 8 10 9 10 9 9 17 21 22 21 21 24 30 29 28 27 28 32 35 35 33 28 31 35
2 8 3 7 8 8 14 16 19 20 18 15 18 22 5 3 3 4 6 3 7 10 10 10 9 11 14 19 22 25 23 23 23 22 24 28 28 31 31 35 35 32 29 30
3 2 3 19 11 7 10 17 15 14 17 13 16 3 2 2 3 5 4 3 5 8 9 11 8 10 16 20 21 20 26 31 31 25 25 25 28 30 34 36 37 35 31 28
7 6 4 11 4 20 6 3 1 6 2 4 4 2 5 6 5 6 4 6 6 9 9 10 11 14 19 24 28 27 28 30 27 25 27 27 31 34 35 36 35 37 33 28
17 11 5 8 11 12 13 5 4 4 4 6 6 3 4 4 2 7 8 7 7 7 10 15 19 22 23 26 28 28 25 28 27 24 25 28 30 32 27 27 32 37 38 31
6 13 10 2 4 6 2 1 1 3 4 6 5 5 5 1 2 10 8 6 7 13 17 18 22 25 23 26 24 25 24 23 25 24 27 30 32 32 30 31 30 29 32 33
3 2 11 11 8 6 6 4 2 5 5 5 5 8 7 6 11 10 4 6 11 14 17 21 23 23 27 27 24 24 26 26 26 28 30 31 29 29 31 32 33 34 32 30
4 3 3 3 1 7 4 2 5 5 4 6 6 10 8 10 13 13 12 10 8 10 21 23 21 25 29 29 25 26 28 30 29 32 31 32 33 32 32 32 35 32 29 27
3 5 4 9 6 3 5 6 15 11 10 13 5 9 8 11 11 11 7 6 8 17 21 24 23 27 32 31 26 27 34 30 30 28 31 36 34 35 34 31 34 31 28 24
5 6 8 11 12 14 17 17 12 9 12 9 6 7 5 7 6 7 7 11 12 19 20 21 22 25 32 33 30 29 33 32 31 33 37 36 34 36 35 32 31 30 29 25
9 4 6 12 14 14 17 16 17 15 9 5 2 1 1 3 7 6 10 12 15 20 23 23 24 25 32 36 38 35 34 33 35 36 37 35 34 34 33 32 31 30 32 30
12 17 10 14 16 14 19 16 1 3 1 3 3 3 1 3 8 9 11 16 19 23 25 27 29 30 34 37 39 37 35 34 34 35 33 31 31 31 30 31 34 35 39 40
Wind_Direction
27 115 211 219 205 131 235 231 250 266 273 294 284 280 272 274 260 272 276 276 276 280 279 291 299 294 279 265 254 246 235 228 216 207 202 210 216 216 222 223 223 218 216 214
61 210 222 173 165 224 247 277 270 277 266 178 272 285 285 261 266 259 266 281 297 290 305 312 313 302 288 279 261 246 238 229 216 207 205 206 209 217 220 220 222 219 217 215
193 218 130 181 205 243 214 228 268 260 325 253 308 269 220 264 245 269 260 290 286 284 298 312 322 316 297 289 279 252 242 234 223 210 198 200 204 215 215 219 221 218 217 216
229 275 189 157 212 174 259 232 251 276 353 276 28 302 205 243 271 263 341 283 302 321 320 301 291 337 341 328 306 281 256 232 227 216 205 197 198 195 210 210 215 217 216 215
249 171 167 170 218 155 227 189 249 153 182 328 28 307 277 198 251 291 301 51 326 275 266 2 359 341 346 351 340 317 270 241 228 219 212 208 215 209 213 203 208 213 215 217
247 322 189 220 218 198 100 87 46 57 87 284 212 191 25 170 197 256 291 324 342 14 358 1 3 354 1 16 12 4 331 254 231 225 222 222 219 220 212 200 201 207 213 215
228 227 252 171 167 33 112 73 318 324 27 230 182 230 238 277 287 8 313 334 18 341 7 10 7 11 9 13 16 22 14 343 272 248 237 233 233 233 226 217 203 197 204 212
212 283 186 168 206 201 187 169 187 218 235 262 165 246 267 209 28 306 15 61 22 16 20 17 14 12 15 17 19 20 17 5 342 292 270 259 256 254 244 235 224 220 216 216
195 263 196 210 163 158 170 195 234 285 60 280 257 272 295 319 66 45 38 35 21 13 12 15 14 15 11 17 21 26 23 20 7 340 308 282 268 256 252 248 244 242 234 228
290 302 188 305 95 230 185 173 176 303 213 243 220 253 258 301 72 39 27 22 20 14 11 14 17 14 10 15 18 22 22 22 20 19 355 316 289 273 261 254 247 242 240 235
238 205 261 103 197 206 168 244 237 286 214 248 252 233 237 94 93 85 47 33 25 20 10 10 12 17 18 15 14 12 14 9 11 9 9 5 326 295 278 265 256 249 248 239
224 213 201 235 242 236 241 249 211 227 232 252 249 246 358 104 93 84 69 47 29 17 10 5 3 6 16 18 14 8 5 7 4 1 5 5 4 341 296 280 271 260 251 247
137 225 281 272 322 20 154 289 254 246 186 254 262 261 123 53 43 36 45 33 26 20 5 356 0 359 6 5 6 6 359 356 357 358 360 2 3 359 339 312 294 281 267 254
51 227 254 256 257 314 276 274 247 244 263 273 259 283 284 2 350 4 6 7 4 6 352 344 357 357 352 354 359 356 356 353 349 352 349 348 351 355 357 350 324 304 287 263
206 259 256 267 273 267 257 274 277 271 269 265 283 283 282 112 318 323 311 343 345 354 345 336 346 347 339 343 350 351 349 347 344 343 344 342 342 345 349 350 349 327 293 276
223 268 234 264 264 256 277 274 267 272 279 268 260 261 116 189 251 305 314 343 330 333 325 322 316 326 332 334 338 337 338 340 338 336 335 335 338 339 341 341 342 339 319 287
259 284 247 274 291 319 268 249 260 261 260 265 262 267 168 258 255 265 285 245 284 298 302 311 304 318 319 319 322 325 328 333 336 334 335 334 336 336 335 337 337 335 326 306
241 247 261 275 19 268 273 59 219 242 54 129 103 177 207 226 242 280 267 235 273 280 284 296 287 299 310 310 313 320 321 324 326 325 330 332 333 332 327 330 328 325 321 301
220 237 255 251 245 281 290 238 198 194 254 183 168 222 259 253 317 275 234 234 266 270 271 279 280 295 298 296 304 311 306 312 315 313 318 322 324 322 317 314 314 316 313 301
209 226 237 113 223 222 244 159 104 107 274 217 177 229 250 140 237 267 226 239 248 268 282 288 293 300 297 295 298 297 288 298 295 300 307 312 313 313 307 309 300 298 297 291
1 4 224 233 245 286 230 235 145 93 275 210 194 231 229 214 234 258 225 247 243 258 277 287 296 291 290 294 293 287 287 284 293 297 301 304 303 301 300 302 303 298 298 298
200 178 202 59 14 275 192 83 151 215 246 212 214 237 241 262 256 251 265 278 298 300 302 296 295 293 295 297 298 291 285 292 293 294 298 299 299 298 297 296 293 290 282 280
284 191 204 195 211 228 198 231 281 269 259 272 232 264 235 258 254 257 277 292 292 290 287 294 295 292 293 293 295 288 291 301 298 293 294 296 295 293 292 289 288 288 278 265
249 196 243 264 253 261 272 275 269 262 247 254 259 259 263 254 282 302 295 292 292 292 294 298 295 294 295 300 299 293 299 302 300 297 294 293 292 292 289 286 282 278 274 265
236 163 245 254 258 267 265 257 260 272 275 282 51 38 344 312 289 283 289 298 299 301 306 308 304 301 297 301 300 300 301 301 295 292 291 291 291 289 287 281 278 274 271 260
240 249 242 255 259 253 265 271 57 230 231 37 5 333 339 306 298 309 298 304 306 308 313 310 306 303 300 300 298 300 300 298 294 291 290 289 289 288 286 285 285 277 272 270